Year,Month,Day,Hour,Minute,Value (Times are PST for windspeed in km/hr)
2017,11,25,11,29,0.00
2017,11,25,11,30,0.00
2017,11,25,11,31,0.00
2017,11,25,11,32,0.00
2017,11,25,11,33,0.40
2017,11,25,11,34,1.10
2017,11,25,11,35,0.00
2017,11,25,11,36,0.50
2017,11,25,11,37,0.30
2017,11,25,11,38,0.00
2017,11,25,11,39,0.00
2017,11,25,11,40,0.00
2017,11,25,11,41,0.00
2017,11,25,11,42,0.20
2017,11,25,11,43,0.10
2017,11,25,11,44,0.00
2017,11,25,11,45,0.00
2017,11,25,11,46,0.00
2017,11,25,11,47,0.00
2017,11,25,11,48,0.00
2017,11,25,11,49,0.00
2017,11,25,11,50,0.80
2017,11,25,11,51,0.00
2017,11,25,11,52,0.00
2017,11,25,11,53,0.00
2017,11,25,11,54,0.00
2017,11,25,11,55,0.10
2017,11,25,11,56,0.00
2017,11,25,11,57,0.20
2017,11,25,11,58,1.50
2017,11,25,11,59,0.30
2017,11,25,12,00,2.20
2017,11,25,12,01,1.70
2017,11,25,12,02,0.10
2017,11,25,12,03,0.00
2017,11,25,12,04,0.70
2017,11,25,12,05,0.00
2017,11,25,12,06,0.90
2017,11,25,12,07,0.00
2017,11,25,12,08,0.00
2017,11,25,12,09,0.10
2017,11,25,12,10,0.00
2017,11,25,12,11,0.10
2017,11,25,12,12,2.00
2017,11,25,12,13,0.00
2017,11,25,12,14,0.10
2017,11,25,12,15,1.80
2017,11,25,12,16,3.20
2017,11,25,12,17,3.00
2017,11,25,12,18,0.50
2017,11,25,12,19,0.40
2017,11,25,12,20,0.90
2017,11,25,12,21,2.50
2017,11,25,12,22,1.80
2017,11,25,12,23,1.50
2017,11,25,12,24,0.20
2017,11,25,12,25,1.90
2017,11,25,12,26,0.50
2017,11,25,12,27,0.20
2017,11,25,12,28,1.10
2017,11,25,12,29,0.00
2017,11,25,12,30,0.30
2017,11,25,12,31,6.10
2017,11,25,12,32,4.80
2017,11,25,12,33,3.50
2017,11,25,12,34,0.00
2017,11,25,12,35,1.80
2017,11,25,12,36,2.30
2017,11,25,12,37,3.10
2017,11,25,12,38,0.40
2017,11,25,12,39,2.90
2017,11,25,12,40,1.30
2017,11,25,12,41,1.40
2017,11,25,12,42,0.80
2017,11,25,12,43,1.50
2017,11,25,12,44,3.70
2017,11,25,12,45,2.90
2017,11,25,12,46,1.50
2017,11,25,12,47,6.10
2017,11,25,12,48,6.10
2017,11,25,12,49,4.50
2017,11,25,12,50,4.40
2017,11,25,12,51,6.40
2017,11,25,12,52,10.50
2017,11,25,12,53,7.80
2017,11,25,12,54,11.20
2017,11,25,12,55,4.90
2017,11,25,12,56,1.20
2017,11,25,12,57,2.80
2017,11,25,12,58,2.10
2017,11,25,12,59,2.40
2017,11,25,13,00,5.10
2017,11,25,13,01,0.80
2017,11,25,13,02,1.70
2017,11,25,13,03,0.80
2017,11,25,13,04,1.00
2017,11,25,13,05,0.80
2017,11,25,13,06,0.00
2017,11,25,13,07,0.00
2017,11,25,13,08,0.00
2017,11,25,13,09,0.00
2017,11,25,13,10,0.00
2017,11,25,13,11,11.30
2017,11,25,13,12,16.00
2017,11,25,13,13,16.60
2017,11,25,13,14,15.20
2017,11,25,13,15,12.90
2017,11,25,13,16,18.10
2017,11,25,13,17,17.50
2017,11,25,13,18,20.20
2017,11,25,13,19,18.20
2017,11,25,13,20,16.20
2017,11,25,13,21,12.80
2017,11,25,13,22,8.30
2017,11,25,13,23,8.80
2017,11,25,13,24,10.80
2017,11,25,13,25,13.50
2017,11,25,13,26,14.50
2017,11,25,13,27,15.60
2017,11,25,13,28,16.60
2017,11,25,13,29,13.60
2017,11,25,13,30,14.80
2017,11,25,13,31,15.00
2017,11,25,13,32,15.10
2017,11,25,13,33,15.20
2017,11,25,13,34,10.60
2017,11,25,13,35,9.30
2017,11,25,13,36,9.10
2017,11,25,13,37,8.90
2017,11,25,13,38,10.10
2017,11,25,13,39,10.60
2017,11,25,13,40,14.50
2017,11,25,13,41,15.60
2017,11,25,13,42,17.00
2017,11,25,13,43,11.90
2017,11,25,13,44,11.50
2017,11,25,13,45,10.00
2017,11,25,13,46,12.10
2017,11,25,13,47,9.20
2017,11,25,13,48,10.40
2017,11,25,13,49,16.00
2017,11,25,13,50,15.30
2017,11,25,13,51,15.90
2017,11,25,13,52,16.10
2017,11,25,13,53,15.70
2017,11,25,13,54,14.90
2017,11,25,13,55,8.00
2017,11,25,13,56,8.80
2017,11,25,13,57,9.80
2017,11,25,13,58,9.10
2017,11,25,13,59,8.40
2017,11,25,14,00,8.80
2017,11,25,14,01,11.30
2017,11,25,14,02,15.40
2017,11,25,14,03,14.70
2017,11,25,14,04,16.10
2017,11,25,14,05,17.90
2017,11,25,14,06,16.40
2017,11,25,14,07,16.20
2017,11,25,14,08,16.70
2017,11,25,14,09,16.20
2017,11,25,14,10,18.50
2017,11,25,14,11,17.80
2017,11,25,14,12,19.70
2017,11,25,14,13,11.30
2017,11,25,14,14,6.80
2017,11,25,14,15,9.80
2017,11,25,14,16,12.40
2017,11,25,14,17,7.90
2017,11,25,14,18,10.40
2017,11,25,14,19,16.10
2017,11,25,14,20,11.10
2017,11,25,14,21,9.90
2017,11,25,14,22,9.70
2017,11,25,14,23,11.30
2017,11,25,14,24,16.40
2017,11,25,14,25,15.80
2017,11,25,14,26,16.30
2017,11,25,14,27,16.10
2017,11,25,14,28,10.90
2017,11,25,14,29,9.80
2017,11,25,14,30,11.40
2017,11,25,14,31,16.20
2017,11,25,14,32,21.80
2017,11,25,14,33,21.90
2017,11,25,14,34,27.10
2017,11,25,14,35,24.20
2017,11,25,14,36,20.30
2017,11,25,14,37,18.30
2017,11,25,14,38,17.40
2017,11,25,14,39,19.40
2017,11,25,14,40,15.00
2017,11,25,14,41,11.30
2017,11,25,14,42,10.00
2017,11,25,14,43,13.50
2017,11,25,14,44,15.50
2017,11,25,14,45,17.00
2017,11,25,14,46,14.10
2017,11,25,14,47,15.40
2017,11,25,14,48,21.20
2017,11,25,14,49,17.50
2017,11,25,14,50,18.60
2017,11,25,14,51,16.10
2017,11,25,14,52,18.80
2017,11,25,14,53,14.70
2017,11,25,14,54,17.70
2017,11,25,14,55,17.90
2017,11,25,14,56,17.40
2017,11,25,14,57,10.80
2017,11,25,14,58,11.30
2017,11,25,14,59,11.30
2017,11,25,15,00,11.30
2017,11,25,15,01,11.30
2017,11,25,15,02,11.30
2017,11,25,15,03,11.30
2017,11,25,15,04,11.30
2017,11,25,15,05,11.30
2017,11,25,15,06,11.30
2017,11,25,15,07,11.30
2017,11,25,15,08,11.30
